Location: Unspecified
(51.0950°N, 12.9690°E)
Time: 22:42:31
(UTC+00:00)

SL-16 R/B - Pass Details

Date: 28 October 2021
Orbit: 842 x 846 km, 71.0° (Epoch: 01 December)

Event Time Altitude Azimuth Distance (km) Brightness Sun altitude
Rises 16:55:42 0° 210° (SSW) 3,391 5.9 -10.9°
Reaches altitude 10° 16:58:08 10° 211° (SSW) 2,460 5.2 -11.3°
Maximum altitude 17:03:47 84° 299° (WNW) 857 2.3 -12.2°
Drops below altitude 10° 17:09:30 10° 29° (NNE) 2,478 4.3 -13.1°
Enters shadow 17:11:52 - 30° (NNE) 3,382 5.0 -13.5°
